Location: Hochstatterhof
(48.7256°N, 10.3487°E)
Time: 20:53:17
(UTC+00:00)

IRS-P3 - Pass Details

Date: 26 September 2023
Orbit: 812 x 818 km, 99.0° (Epoch: 08 December)

Event Time Altitude Azimuth Distance (km) Brightness Sun altitude
Rises 04:35:07 0° 12° (NNE) 3,362 7.6 -6.6°
Reaches altitude 10° 04:37:29 10° 9° (N) 2,425 6.8 -6.2°
Maximum altitude 04:42:46 63° 290° (WNW) 917 4.2 -5.4°
Drops below altitude 10° 04:48:01 10° 211° (SSW) 2,406 6.3 -4.5°
Sets 04:50:22 0° 208° (SSW) 3,333 7.0 -4.1°
